| time (UTC) | temp C | wind direction | speed KPH | gust KPH | rain 1hr cm | rain 24hr cm | rain mn cm | humidity % | barometer mb |
| 20260508213014 | 27 | 167 | 1.6 | 9.7 | 0.00 | 0.00 | 0.00 | 17 | 1016.5 |
| 20260508211515 | 27 | 193 | 1.6 | 6.4 | 0.00 | 0.00 | 0.00 | 18 | 1016.7 |
| 20260508210017 | 27 | 199 | 1.6 | 11.3 | 0.00 | 0.00 | 0.00 | 17 | 1016.8 |
| 20260508204531 | 27 | 130 | 1.6 | 4.8 | 0.00 | 0.00 | 0.00 | 17 | 1017.0 |
| 20260508203028 | 26 | 187 | 3.2 | 9.7 | 0.00 | 0.00 | 0.00 | 16 | 1017.1 |
| 20260508201513 | 26 | 96 | 3.2 | 11.3 | 0.00 | 0.00 | 0.00 | 18 | 1017.4 |
| 20260508200016 | 26 | 135 | 1.6 | 6.4 | 0.00 | 0.00 | 0.00 | 18 | 1017.4 |
| 20260508194523 | 26 | 167 | 1.6 | 6.4 | 0.00 | 0.00 | 0.00 | 18 | 1017.4 |
| 20260508193026 | 25 | 101 | 1.6 | 9.7 | 0.00 | 0.00 | 0.00 | 20 | 1017.4 |
| 20260508191531 | 25 | 128 | 3.2 | 11.3 | 0.00 | 0.00 | 0.00 | 21 | 1017.7 |
| 20260508190022 | 25 | 129 | 3.2 | 9.7 | 0.00 | 0.00 | 0.00 | 21 | 1017.8 |
| 20260508184520 | 25 | 135 | 6.4 | 16.1 | 0.00 | 0.00 | 0.00 | 21 | 1018.0 |
| 20260508183022 | 25 | 125 | 4.8 | 14.5 | 0.00 | 0.00 | 0.00 | 22 | 1018.0 |
| 20260508181525 | 25 | 105 | 4.8 | 14.5 | 0.00 | 0.00 | 0.00 | 22 | 1018.1 |
| 20260508180030 | 24 | 179 | 3.2 | 12.9 | 0.00 | 0.00 | 0.00 | 22 | 1018.1 |
| 20260508174516 | 23 | 205 | 0.0 | 9.7 | 0.00 | 0.00 | 0.00 | 25 | 1018.2 |
| 20260508173021 | 22 | 123 | 1.6 | 4.8 | 0.00 | 0.00 | 0.00 | 31 | 1018.2 |
| 20260508171525 | 23 | 136 | 0.0 | 9.7 | 0.00 | 0.00 | 0.00 | 27 | 1018.1 |
| 20260508170030 | 23 | 162 | 0.0 | 3.2 | 0.00 | 0.00 | 0.00 | 24 | 1018.0 |
| 20260508164528 | 23 | 179 | 1.6 | 8.0 | 0.00 | 0.00 | 0.00 | 29 | 1017.9 |
| 20260508163018 | 23 | 153 | 0.0 | 4.8 | 0.00 | 0.00 | 0.00 | 29 | 1017.8 |
| 20260508161521 | 22 | 129 | 1.6 | 4.8 | 0.00 | 0.00 | 0.00 | 31 | 1017.8 |
| 20260508160049 | 21 | 129 | 0.0 | 3.2 | 0.00 | 0.00 | 0.00 | 31 | 1017.6 |
| 20260508154529 | 21 | 232 | 0.0 | 3.2 | 0.00 | 0.00 | 0.00 | 31 | 1017.6 |
| 20260508153033 | 20 | 205 | 0.0 | 1.6 | 0.00 | 0.00 | 0.00 | 33 | 1017.5 |
| 20260508151520 | 20 | 210 | 0.0 | 1.6 | 0.00 | 0.00 | 0.00 | 35 | 1017.4 |
| 20260508150027 | 19 | 217 | 0.0 | 1.6 | 0.00 | 0.00 | 0.00 | 37 | 1017.4 |
| 20260508144510 | 18 | 172 | 0.0 | 1.6 | 0.00 | 0.00 | 0.00 | 40 | 1017.3 |
| 20260508143011 | 17 | 172 | 0.0 | 0.0 | 0.00 | 0.00 | 0.00 | 45 | 1017.3 |
| 20260508141518 | 16 | 176 | 0.0 | 0.0 | 0.00 | 0.00 | 0.00 | 51 | 1017.3 |
| 20260508140020 | 13 | 176 | 0.0 | 0.0 | 0.00 | 0.00 | 0.00 | 57 | 1017.2 |
| 20260508134508 | 10 | 176 | 0.0 | 0.0 | 0.00 | 0.00 | 0.00 | 69 | 1017.1 |
| 20260508133015 | 8 | 176 | 0.0 | 0.0 | 0.00 | 0.00 | 0.00 | 76 | 1016.9 |
| 20260508131513 | 7 | 176 | 0.0 | 0.0 | 0.00 | 0.00 | 0.00 | 76 | 1016.8 |
| 20260508130017 | 7 | 176 | 0.0 | 0.0 | 0.00 | 0.00 | 0.00 | 76 | 1016.6 |
| 20260508124524 | 7 | 176 | 0.0 | 0.0 | 0.00 | 0.00 | 0.00 | 75 | 1016.4 |
| 20260508123006 | 7 | 175 | 0.0 | 0.0 | 0.00 | 0.00 | 0.00 | 76 | 1016.3 |
| 20260508121528 | 7 | 176 | 0.0 | 0.0 | 0.00 | 0.00 | 0.00 | 75 | 1016.0 |
| 20260508120014 | 7 | 176 | 0.0 | 0.0 | 0.00 | 0.00 | 0.00 | 74 | 1016.0 |
| 20260508114519 | 7 | 176 | 0.0 | 0.0 | 0.00 | 0.00 | 0.00 | 74 | 1016.0 |
| 20260508113024 | 8 | 176 | 0.0 | 0.0 | 0.00 | 0.00 | 0.00 | 73 | 1016.0 |
| 20260508111504 | 8 | 175 | 0.0 | 0.0 | 0.00 | 0.00 | 0.00 | 74 | 1015.9 |
| 20260508110011 | 7 | 176 | 0.0 | 0.0 | 0.00 | 0.00 | 0.00 | 74 | 1015.9 |
| 20260508104515 | 7 | 175 | 0.0 | 0.0 | 0.00 | 0.00 | 0.00 | 73 | 1015.8 |
| 20260508103019 | 8 | 175 | 0.0 | 0.0 | 0.00 | 0.00 | 0.00 | 72 | 1015.7 |
| 20260508101522 | 8 | 175 | 0.0 | 0.0 | 0.00 | 0.00 | 0.00 | 72 | 1015.6 |
| 20260508100026 | 8 | 221 | 0.0 | 1.6 | 0.00 | 0.00 | 0.00 | 71 | 1015.6 |
| 20260508094509 | 8 | 221 | 0.0 | 0.0 | 0.00 | 0.00 | 0.00 | 71 | 1015.5 |
| 20260508093022 | 8 | 221 | 0.0 | 1.6 | 0.00 | 0.00 | 0.00 | 70 | 1015.4 |
| 20260508091521 | 8 | 221 | 0.0 | 0.0 | 0.00 | 0.00 | 0.00 | 69 | 1015.4 |
| 20260508090024 | 8 | 221 | 0.0 | 0.0 | 0.00 | 0.00 | 0.00 | 69 | 1015.3 |
| 20260508084526 | 8 | 221 | 0.0 | 0.0 | 0.00 | 0.00 | 0.00 | 69 | 1015.5 |
| 20260508083035 | 9 | 221 | 0.0 | 0.0 | 0.00 | 0.00 | 0.00 | 69 | 1015.6 |
| 20260508081516 | 9 | 222 | 0.0 | 0.0 | 0.00 | 0.00 | 0.00 | 68 | 1015.5 |
| 20260508080020 | 9 | 222 | 0.0 | 0.0 | 0.00 | 0.00 | 0.00 | 68 | 1015.4 |
| 20260508074504 | 10 | 222 | 0.0 | 0.0 | 0.00 | 0.00 | 0.00 | 65 | 1015.4 |
| 20260508073006 | 10 | 222 | 0.0 | 0.0 | 0.00 | 0.00 | 0.00 | 64 | 1015.3 |
| 20260508071507 | 10 | 223 | 0.0 | 0.0 | 0.00 | 0.00 | 0.00 | 62 | 1015.2 |
| 20260508070009 | 11 | 223 | 0.0 | 0.0 | 0.00 | 0.00 | 0.00 | 61 | 1015.1 |
| 20260508064527 | 11 | 223 | 0.0 | 0.0 | 0.00 | 0.00 | 0.00 | 61 | 1015.1 |
| 20260508063008 | 11 | 223 | 0.0 | 0.0 | 0.00 | 0.00 | 0.00 | 59 | 1015.1 |
| 20260508061511 | 12 | 223 | 0.0 | 1.6 | 0.00 | 0.00 | 0.00 | 57 | 1015.1 |
| 20260508060009 | 12 | 224 | 0.0 | 0.0 | 0.00 | 0.00 | 0.00 | 55 | 1014.9 |
| 20260508054512 | 12 | 223 | 0.0 | 0.0 | 0.00 | 0.00 | 0.00 | 53 | 1014.8 |
| 20260508053012 | 13 | 224 | 0.0 | 1.6 | 0.00 | 0.00 | 0.00 | 51 | 1014.7 |
| 20260508051507 | 13 | 224 | 0.0 | 3.2 | 0.00 | 0.00 | 0.00 | 51 | 1014.5 |
| 20260508050014 | 13 | 183 | 0.0 | 0.0 | 0.00 | 0.00 | 0.00 | 50 | 1014.5 |
| 20260508044512 | 13 | 219 | 0.0 | 0.0 | 0.00 | 0.00 | 0.00 | 48 | 1014.6 |
| 20260508043013 | 14 | 219 | 0.0 | 0.0 | 0.00 | 0.00 | 0.00 | 46 | 1014.6 |
| 20260508041515 | 14 | 233 | 0.0 | 0.0 | 0.00 | 0.00 | 0.00 | 46 | 1014.4 |
| 20260508040012 | 15 | 233 | 0.0 | 0.0 | 0.00 | 0.00 | 0.00 | 44 | 1014.3 |
| 20260508034512 | 15 | 233 | 0.0 | 0.0 | 0.00 | 0.00 | 0.00 | 42 | 1014.2 |
| 20260508033018 | 16 | 233 | 0.0 | 0.0 | 0.00 | 0.00 | 0.00 | 40 | 1014.2 |
| 20260508031514 | 17 | 233 | 0.0 | 1.6 | 0.00 | 0.00 | 0.00 | 38 | 1014.0 |
| 20260508030014 | 17 | 234 | 0.0 | 0.0 | 0.00 | 0.00 | 0.00 | 39 | 1013.9 |
| 20260508024524 | 18 | 234 | 0.0 | 1.6 | 0.00 | 0.00 | 0.00 | 37 | 1013.9 |
| 20260508023022 | 19 | 234 | 0.0 | 0.0 | 0.00 | 0.00 | 0.00 | 32 | 1013.8 |
| 20260508021517 | 20 | 234 | 0.0 | 0.0 | 0.00 | 0.00 | 0.00 | 29 | 1013.8 |
| 20260508020016 | 21 | 233 | 0.0 | 0.0 | 0.00 | 0.00 | 0.00 | 27 | 1013.7 |
| 20260508014519 | 22 | 235 | 0.0 | 1.6 | 0.00 | 0.00 | 0.00 | 25 | 1013.7 |
| 20260508013017 | 23 | 235 | 0.0 | 1.6 | 0.00 | 0.00 | 0.00 | 23 | 1013.7 |
| 20260508011517 | 24 | 257 | 0.0 | 4.8 | 0.00 | 0.00 | 0.00 | 23 | 1013.7 |
| 20260508010020 | 25 | 213 | 0.0 | 4.8 | 0.00 | 0.00 | 0.00 | 22 | 1013.7 |
| 20260508004515 | 25 | 181 | 0.0 | 1.6 | 0.00 | 0.00 | 0.00 | 21 | 1013.8 |
| 20260508003007 | 25 | 173 | 0.0 | 1.6 | 0.00 | 0.00 | 0.00 | 22 | 1013.9 |
| 20260508001513 | 23 | 248 | 0.0 | 3.2 | 0.00 | 0.00 | 0.00 | 22 | 1014.1 |
| 20260508000019 | 24 | 177 | 0.0 | 1.6 | 0.00 | 0.00 | 0.00 | 23 | 1014.2 |
| 20260507234520 | 25 | 249 | 0.0 | 1.6 | 0.00 | 0.00 | 0.00 | 22 | 1014.4 |
| 20260507233018 | 26 | 259 | 1.6 | 4.8 | 0.00 | 0.00 | 0.00 | 20 | 1014.5 |
| 20260507231508 | 26 | 247 | 1.6 | 3.2 | 0.00 | 0.00 | 0.00 | 19 | 1014.6 |
| 20260507230014 | 26 | 221 | 1.6 | 6.4 | 0.00 | 0.00 | 0.00 | 20 | 1014.9 |
| 20260507224518 | 26 | 260 | 3.2 | 6.4 | 0.00 | 0.00 | 0.00 | 21 | 1015.1 |
| 20260507223023 | 27 | 221 | 0.0 | 6.4 | 0.00 | 0.00 | 0.00 | 22 | 1015.4 |
| 20260507221520 | 26 | 131 | 1.6 | 11.3 | 0.00 | 0.00 | 0.00 | 22 | 1015.5 |
| 20260507220011 | 27 | 184 | 1.6 | 6.4 | 0.00 | 0.00 | 0.00 | 21 | 1015.6 |
| 20260507214515 | 26 | 131 | 4.8 | 11.3 | 0.00 | 0.00 | 0.00 | 21 | 1015.8 |